Flag for United Arab Emirates Weather past 2 weeks in Abu Dhabi, Abu Dhabi, United Arab Emirates

Now
90 °F

Fog.


Feels Like: 119 °F
Forecast: 94 / 107 °F
Wind: 5 mph from North

Location: Abu Dhabi Bateen Airport

Current Time: Aug 29, 2015 at 5:18:14 AM

Latest Report: Aug 29, 2015 at 5:00 AM


Visibility: 2 mi

Pressure: 29.53 "Hg

Humidity: 89%

Dew point: 86 °F

Historic Weather in Abu Dhabi — Graph

°F

Abu Dhabi temperature yesterday

Maximum temperature yesterday: 104 °F (at 1:00 PM)
Minimum temperature yesterday: 90 °F (at 1:00 AM)
Average temperature yesterday: 95 °F

Past Weeks' High & Low Weather Summary

 TemperatureHumidityPressure
High115 °F (Aug 24, 3:00 PM)89% (Aug 28, 4:00 AM)29.68 "Hg (Aug 28, 4:00 AM)
Low88 °F (Aug 15, 7:00 AM)11% (Aug 25, 3:00 PM)29.47 "Hg (Aug 14, 5:00 PM)
Average99 °F43%29.55 "Hg
* Reported Aug 14 4:00 AM — Aug 29 4:00 AM, Abu Dhabi, Weather by CustomWeather, © 2015

Note: Actual official high and low records may vary slightly from our data, if they occured in-between our weather recording intervals... More about our weather records

Advertising

Abu Dhabi weather history for previous 24 hours

 ConditionsComfort  
Time TempWeatherWind HumidityBarometerVisibility
4:00 AM
Sat, Aug 29
90 °FHaze.6 mph89%29.53 "Hg1 mi
3:00 AM90 °FHaze.1 mph89%29.53 "Hg2 mi
2:00 AM90 °FFog.5 mph89%29.53 "Hg1 mi
1:00 AM91 °FPassing clouds.6 mph89%29.53 "Hg1 mi
12:00 AM91 °FPassing clouds.5 mph89%29.56 "Hg1 mi
11:00 PM
Fri, Aug 28
91 °FClear.9 mph89%29.56 "Hg1 mi
10:00 PM91 °FHaze.8 mph89%29.56 "Hg2 mi
9:00 PM93 °FHaze.8 mph84%29.56 "Hg2 mi
8:00 PM93 °FHaze.8 mph80%29.53 "Hg2 mi
7:00 PM95 °FHaze.9 mph75%29.53 "Hg2 mi
6:00 PM97 °FHaze.12 mph71%29.53 "Hg2 mi
5:00 PM99 °FDuststorm.13 mph64%29.50 "Hg3 mi
4:00 PM100 °FDuststorm.9 mph60%29.53 "Hg3 mi
3:00 PM100 °FDuststorm.10 mph60%29.53 "Hg3 mi
2:00 PM100 °FDuststorm.10 mph60%29.53 "Hg2 mi
1:00 PM104 °FClear.7 mph54%29.56 "Hg4 mi
12:00 PM102 °FClear.6 mph51%29.59 "Hg5 mi
11:00 AM100 °FClear.3 mph60%29.59 "Hg4 mi
10:00 AM97 °FHaze.5 mph67%29.59 "Hg3 mi
9:00 AM95 °FHaze.3 mph71%29.59 "Hg2 mi
8:00 AM91 °FHaze.2 mph84%29.56 "Hg1 mi
7:00 AM90 °FHaze.2 mph84%29.56 "Hg1 mi
6:00 AM90 °FHaze.3 mph84%29.53 "Hg2 mi
5:00 AM90 °FHaze.5 mph89%29.53 "Hg2 mi
Weather by CustomWeather, © 2015

See weather overviewHow to use our weather pages